Location: Newark
(13.9550°N, 109.0422°E)
Time: 16:49:25
(UTC+00:00)

Hubble Space Telescope - Pass Details

Date: 29 October 2019
Orbit: 536 x 540 km, 28.5° (Epoch: 13 November)

Event Time Altitude Azimuth Distance (km) Brightness Sun altitude
Exits shadow 20:35:36 13° 40° (NE) 1,575 3.5 -30.0°
Drops below altitude 10° 20:36:11 10° 44° (NE) 1,777 3.8 -29.8°
Sets 20:38:36 0° 54° (NE) 2,667 4.9 -29.2°
